SL-8 DEB, 21137

Orbit data source: Space-Track

SL-8 DEB, 21137 is space debris in LEO originally from a launch on Tue, 12 Feb 1991 UTC launched from the Plesetsk Missile And Space Complex (PKMTR). Debris objects in space refer to the collection of defunct objects orbiting the Earth. Examples of debris include non-operational satellites, rocket bodies, and fragments generated from explosions, collisions, or faulty payload assembly.

Loading next visibility...
Identifier
21137, 1991-009P
Orbit
LEO
Country
Flag of CISCIS
Related business
Manufacturer
Unknown
Mission
Spacecraft
Bus & Motor
Unknown
Mass
Unknown
Launch date (UTC)
1991-02-12 (35 years ago)
Launch vehicle
Unknown
Launch site
Plesetsk Missile And Space Complex (PKMTR)
Object type
Payload
Rocket body
Debris
Shape & HBR
Unknown shape, 0.3 m
Radar Cross Section
Medium (>0.1 m² and <1 m²)

Expand to show TLE details & history
Last TLE update: 2 days ago

TLE from 2 days ago
0 SL-8 DEB
1 21137U 91009P   26171.29099926 -.00000064  00000-0 -47138-3 0  9994
2 21137  74.0440 245.6411 0151418 341.1203  76.6103 12.18046797570901
Epoch: 2026-06-20T06:59Z
TLE epoch observation values (Epoch: 2026-06-20T06:59:02.336Z)
Latitude
55.9709°
Longitude
-102.70535°
Altitude
1,583.74 km
Speed
7.094 km/s
True Right ascension
18h 02m 14s
True Declination
55° 49' 40"
Sunlit
Object was in daylight at epoch
Visualization orbit readout
Latitude
Unknown
Longitude
Unknown
Altitude
Unknown
Speed
Unknown
Apparent Right ascension
Unknown
Apparent Declination
Unknown
Sunlit
N/A
Visualization observer readout
Local Sidereal Time
23:21:47
Azimuth
Unknown
Elevation
Unknown
Doppler factor
Unknown
Orbital elements
Apogee altitude
1,719.718 km
Perigee altitude
1,478.143 km
Semi-major axis
7,977.068 km
Eccentricity
0.01514
Inclination
74.044°
RAAN
245.6411°
Arg. of periapsis
341.1203°
True anomaly
78.30544°
Mean anomaly
76.6103°
Eccentric anomaly
77.45716°
Mean motion
3.04634 °/min
Orbital period
118.17 mins
BSTAR
-0.00047138
Loading maneuver chart data...
Computing Atmospheric mass density...
Loading historical data...
Loading historical data...
Loading historical data...
Loading historical data...
Loading historical data...
Loading historical data...
Loading historical data...

Documentation

Showing up to 5 results
|